Regional Weather Roundup
Issued by NWS

Home | Current Version | Previous Version | Text Only | Print | Product List | Glossary Off
Versions: 1 2 3 4 5 6 7 8 9 10 11 12 13 14 15 16 17 18 19 20 21 22 23 24 25 26 27 28 29 30 31 32 33 34 35 36 37 38 39 40 41 42 43 44 45 46 47 48 49 50

000
ASUS43 KLSX 271907
RWRMO

WEATHER SUMMARY FOR MISSOURI
NATIONAL WEATHER SERVICE SPRINGFIELD MO
100 PM CST SAT DEC 27 2014

NOTE: "FAIR" INDICATES FEW OR NO CLOUDS BELOW 12,000 FEET WITH NO
       SIGNIFICANT WEATHER AND/OR OBSTRUCTIONS TO VISIBILITY.
       CURRENT SKY AND/OR WEATHER CONDITIONS ARE NOT AVAILABLE FOR
       CHILLICOTHE AND FARMINGTON.

MOZ001>031-035>038-043-044-053-054-272000-
...NORTHERN AND WESTERN MISSOURI...

CITY           SKY/WX    TMP DP  RH WIND       PRES   REMARKS
KANSAS CTY INT PTSUNNY   30  22  72 W9        30.23F WCI  22
KANSAS C DTWN  CLOUDY    32  23  69 NW10      30.23F WCI  24
LEE`S SUMMIT   CLOUDY    32  24  72 NW10      30.22F WCI  24
ST JOSEPH      CLOUDY    29  21  72 NW13      30.25F WCI  19
CHILLICOTHE      N/A     32  24  72 NW5       30.22S WCI  27
KIRKSVILLE     CLOUDY    33  26  75 W10       30.18F WCI  25

$$
MOZ066>068-077>081-088>096-101>105-272000-
...SOUTHWEST MISSOURI...

CITY           SKY/WX    TMP DP  RH WIND       PRES   REMARKS
SPRINGFIELD    CLOUDY    34  31  88 NW7       30.19S WCI  28
JOPLIN         LGT SNOW  31  29  92 NW8       30.24F FOG     WCI  23

$$
MOZ032>034-039>042-045>050-055>058-069>072-272000-
...CENTRAL MISSOURI...

CITY           SKY/WX    TMP DP  RH WIND       PRES   REMARKS
COLUMBIA       LGT SNOW  35  32  88 NW9       30.17F FOG     WCI  28
JEFFERSON CITY CLOUDY    36  34  92 NW9       30.19F WCI  29
ROLLA          MIX PCPN  36  33  89 W7        30.14F
SEDALIA        CLOUDY    35  27  72 NW13      30.20F WCI  26
WHITEMAN AFB   CLOUDY    34  27  76 NW8       30.19F WCI  27
WARRENSBURG    CLOUDY    32  27  80 W9        30.21S WCI  24
OSAGE BEACH    CLOUDY    36  32  87 W5        30.17F

$$
MOZ051-052-059>065-272000-
...EAST CENTRAL MISSOURI...

CITY           SKY/WX    TMP DP  RH WIND       PRES   REMARKS
ST LOUIS INTL  LGT RAIN  41  35  79 W14G21    30.17R
SPIRIT OF STL  LGT RAIN  40  37  89 W9        30.18R FOG
ST CHARLES     LGT RAIN  40  35  83 W16       30.18R

$$
MOZ072>076-082>087-097>100-106>115-272000-
...SOUTH CENTRAL AND SOUTHEAST MISSOURI...

CITY           SKY/WX    TMP DP  RH WIND       PRES   REMARKS
CAPE GIRARDEAU CLOUDY    50  49  96 W3        30.11F FOG
POPLAR BLUFF   CLOUDY    51  49  92 NW5       30.10F FOG
WEST PLAINS    CLOUDY    40  35  83 NW8       30.14F

$$


USA.gov is the U.S. government's official web portal to all federal, state and local government web resources and services.